Weather in Loviisa

Finland     60°27′26″N   26°13′34″E
temp.,
°C
wind,
m/s
gust,
m/s
humid.,
%
clouds,
%
prec.,
mm/h
press.,
hPa
HPBL,
m
7 may, fri
fri700:00+2n2386100 0.0 996172
03:00+2n1387100 0.0 996153
06:00+2n128687 0.0 997118
09:00+5ese016993 0.0 999593
12:00+5s337185 0.0 1000808
15:00+6s467783 0.0 1001699
18:00+7ssw576755 0.1 1001855
21:00+4ssw497831 0.1 1003592
8 may, sat
sat800:00+3sw397853 0.0 1003480
03:00+2ssw228246 0.0 100324
06:00+3nw237894 0.0 1004136
09:00+4nw3487100 0.1 1004526
12:00+7nnw356094 0.2 10051318
15:00+9nw3538100 0.2 10061919
18:00+9wnw3538100 0.1 10071909
21:00+5wnw25655 0.6 100891
9 may, sun
sun900:00+2wnw310760 0.0 1010201
03:00+1wnw410761 0.0 1011279
06:000w237584 0.0 101373
09:00+6s3554100 0.0 1013450
12:00+8sw5868100 0.1 1013887
15:00+10sw71054100 0.1 10131276
18:00+9sw61150100 0.0 1014820
21:00+8sw51055100 0.0 1015689
10 may, mon
mon1000:00+5s4988100 0.4 1015801
03:00+5sse51197100 2.1 1013520
06:00+7sw41393100 0.3 1014451
09:00+10ssw51487100 0.3 1015465
12:00+13sw61376100 0.0 1016575
15:00+16sw61262100 0.0 1017909
18:00+15ssw51363100 0.0 1017659
21:00+13sw61569100 0.0 1016570
11 may, tue
tue1100:00+12ssw51573100 0.0 1018494
03:00+11ssw41382100 0.0 1018416
06:00+10ssw41384100 0.0 1018445
09:00+12ssw51075100 0.0 1019446
12:00+15ssw5964100 0.0 1019643
15:00+15s3865100 0.0 1020577
18:00+17s256034 0.0 1020539
21:00+12se11794 0.0 102011